Starlink 5960

operational
NORAD ID: 56920 Int'l Des: 2023-083 Owner: SPXS Country: US Constellation: starlink
LEOCIRCULAR

About Starlink 5960

Description loading...

Live Position

Loading 3D Globe...

Upcoming Passes

Altitude History

Altitude vs Time

uPlot chart will show altitude changes over time

Two-Line Element Set

1 56920U 23083AW 26063.11677621 .00000060 00000-0 19493-4 0 9992
2 56920 43.0027 98.9198 0001264 273.8902 86.1796 15.02535536150983
Epoch: Mar 4, 2026 • Age: 17 hours

Current Status

Altitude 567.3 km
Velocity 7.58 km/s
Sub-Earth Point -32.40°S, 3.33°W
Launch Date Jun 12, 2023
Age 2.7 years
Type internet

Technical Details

Classification Payload
Mass 305.00 kg
Dry Mass 290.00 kg
Total Mass 305.00 kg
Length 0.20 m
Diameter 2.80 m
Span 9.00 m
Shape Box + pan
Manufacturer SPXS
Bus Type Starlink
Phase Status In Orbit
Owner/State SPXS/US

Large Constellations

Loading constellations...